Regional Weather Roundup
Issued by NWS

Home | Current Version | Previous Version | Graphics & Text | Print | Product List | Glossary On
Versions: 1 2 3 4 5 6 7 8 9 10 11 12 13 14 15 16 17 18 19 20 21 22 23 24 25 26 27 28 29 30 31 32 33 34 35 36 37 38 39 40 41 42 43 44 45 46 47 48 49 50
000
ASUS45 KCYS 251810
RWRWY

WYOMING REGIONAL WEATHER ROUNDUP
NATIONAL WEATHER SERVICE CHEYENNE WY
1200 PM MDT FRI JUL 25 2014

NOTE:  "FAIR" INDICATES FEW OR NO CLOUDS BELOW 12,000 FEET
WITH NO SIGNIFICANT WEATHER AND/OR OBSTRUCTIONS TO VISIBILITY.

WYZ001-251900-
YELLOWSTONE NATIONAL PARK

CITY           SKY/WX    TMP DP  RH WIND       PRES   REMARKS
LK YELLOWSTONE   N/A     64  20  18 VRB5      30.25S
6HR MIN TEMP:  29; 6HR MAX TEMP:  65;

W YELLOWSTONE  NOT AVBL

$$
WYZ002>013-054>058-071-098>099-251900-
NORTHERN WYOMING

CITY           SKY/WX    TMP DP  RH WIND       PRES   REMARKS
JACKSON        NOT AVBL
CODY           NOT AVBL
GREYBULL       SUNNY     80  36  20 CALM      29.95F
6HR MIN TEMP:  58; 6HR MAX TEMP:  82;

WORLAND        SUNNY     79  39  23 NW7       29.96F
6HR MIN TEMP:  54; 6HR MAX TEMP:  79;

SHERIDAN       SUNNY     79  51  37 E7        29.95F
6HR MIN TEMP:  49; 6HR MAX TEMP:  80;

BUFFALO        SUNNY     79  48  33 SE14G22   30.00F
6HR MIN TEMP:  52; 6HR MAX TEMP:  79;

GILLETTE       SUNNY     80  42  25 SE12      29.98F
6HR MIN TEMP:  49; 6HR MAX TEMP:  80;

HULETT         FAIR      77  37  24 MISG      30.00
NEWCASTLE      FAIR      79  48  34 SE20      30.00

$$
WYZ014>020-022>026-101>103-251900-
CENTRAL WYOMING

CITY           SKY/WX    TMP DP  RH WIND       PRES   REMARKS
BIG PINEY      SUNNY     77  33  20 SW5       30.21F
6HR MIN TEMP:  40; 6HR MAX TEMP:  77;

PINEDALE       CLEAR     77  28  16 W7        30.21F
DUBOIS         FAIR      75  21  13 W21G32    30.16S
LANDER         SUNNY     81  27  14 N5        30.03F
6HR MIN TEMP:  57; 6HR MAX TEMP:  82;

RIVERTON       SUNNY     80  35  19 E3        30.04F
6HR MIN TEMP:  59; 6HR MAX TEMP:  80;

CASPER         SUNNY     89  38  16 SW16G22   30.02F
6HR MIN TEMP:  55; 6HR MAX TEMP:  89; 6HR PCP: TRACE;

DOUGLAS        SUNNY     82  50  32 S10       30.04F
6HR MIN TEMP:  53; 6HR MAX TEMP:  82;


$$
WYZ021-027>030-104>119-251900-
SOUTHERN WYOMING

CITY           SKY/WX    TMP DP  RH WIND       PRES   REMARKS
EVANSTON       SUNNY     81  40  23 SW22G28   30.23F
6HR MIN TEMP:  52; 6HR MAX TEMP:  81;

KEMMERER       CLEAR    N/A N/A N/A W13G20    30.23F
FORT BRIDGER   FAIR      83  35  18 W17G26    30.24S
ROCK SPRINGS   SUNNY     83  32  16 W13G26    30.19S
6HR MIN TEMP:  58; 6HR MAX TEMP:  84;

DIXON          FAIR      88  45  22 SW9G23    30.21F
RAWLINS        SUNNY     87  41  19 SW24G33   30.17F
6HR MIN TEMP:  62; 6HR MAX TEMP:  87;

SARATOGA       FAIR      84  41  21 W21G29    30.21S
LARAMIE        PTSUNNY   81  48  31 W18       30.22S
6HR MIN TEMP:  57; 6HR MAX TEMP:  81;

CHEYENNE       PTSUNNY   80  53  39 VRB3      30.15F
6HR MIN TEMP:  68; 6HR MAX TEMP:  80;

TORRINGTON     PTSUNNY   82  44  26 SE8       30.02F
6HR MIN TEMP:  61; 6HR MAX TEMP:  82;

PINE BLUFFS    FAIR      81  55  41 E8        30.10S

$$



USA.gov is the U.S. government's official web portal to all federal, state and local government web resources and services.